Location: La Tine
(46.4708°N, 7.0525°E)
Time: 06:44:11
(UTC+00:00)

ARIANE 5 R/B - Pass Details

Date: 18 September 2020
Orbit: 620 x 657 km, 98.2° (Epoch: 09 October)

Event Time Altitude Azimuth Distance (km) Brightness Sun altitude
Exits shadow 19:37:43 28° 50° (NE) 1,191 3.8 -20.9°
Drops below altitude 10° 19:40:49 10° 7° (N) 2,002 5.4 -21.4°
Sets 19:43:13 0° 356° (N) 2,911 6.4 -21.7°
